Погода в Корневе

Россия / Калининградская область     54°26′45″N   20°17′25″E
темп.,
°C
ветер,
м/с
пор.,
м/с
влажн.,
%
обл.,
%
осадки,
мм/ч
давл.,
гПа
погр.,
м
9 марта, вт
вт923:00−3ссз24780 0.0 1022109
02:00−3св11779 0.0 102321
05:00−3ю117299 0.0 102336
08:00−3ю1270100 0.0 1023103
11:00−1ю2260100 0.0 1023641
14:000ю3351100 0.0 10231162
17:000ю3457100 0.0 1022819
20:00−2ю356898 0.0 1022103
10 марта, ср
ср1023:00−3ю366980 0.0 1022153
02:00−3ююз476750 0.0 1022185
05:00−3ююз36670 0.0 1021158
08:00−3ююз35660 0.0 1021150
11:00+1юз34550 0.0 1021537
14:00+2зюз34500 0.0 10211098
17:00+1зсз23570 0.0 1020580
20:00−1ююз11660 0.0 102121
11 марта, чт
чт1123:00−2ююв236814 0.0 102139
02:00−2ю35717 0.0 1021105
05:00−2ю47720 0.0 1019170
08:00−2ю6106627 0.0 1018283
11:00+2ю81350100 0.0 1016920
14:00+3ююв91445100 0.0 1013958
17:00+2ююв91648100 0.0 1009940
20:00+1ю101868100 0.4 1005887
12 марта, пт
пт1223:000ю101896100 2.7 1002627
02:00+2ю71295100 4.0 1000336
05:00+3юз5109898 1.6 1000292
08:00+2зюз5109799 3.5 1000340
11:00+3зюз51091100 0.4 1002585
14:00+4зюз61287100 0.5 1005747
17:00+4з6117974 0.1 1006690
20:00+2юз498786 0.3 1007200
13 марта, сб
сб1323:00+2ююз51186100 0.0 1007280
02:00+1ююз6128551 0.0 1006270
05:00+1ю7148488 0.0 1004348
08:00+1ююз8159494 0.4 1003675
11:00+4юз71387100 0.8 1003859
14:00+6зюз7107097 1.1 10041203
17:00+5юз5107354 0.1 1003975
20:00+4ю6147761 0.1 1002397